Zurück zum Katalog

STARLINK-30164

AktivKommunikationVLEO
NORAD 57500·PAYLOAD·🇺🇸 United States

Gestartet Aug 7, 2023 von Cape Canaveral Space Force Station

Loading…

Nächste Überflüge (nächste 24 Stunden)

TLE

AktuellSource: CelesTrak SupGP

Epoche: Sep 15, 2026, 02:56 UTC

1 57500C 23113F   26258.12270833 -.00037308  00000+0 -13514-2 0  2582
2 57500  43.0019  26.2490 0001608 268.0172 195.7327 15.27595409    12

Verfolge STARLINK-30164 in Echtzeit mit AllMySat

Download on the App Store